Wind_Speed
31 34 39 35 32 24 23 26 24 25 25 26 26 24 25 12 14 17 25 25 23 20 17 19 19 19 18 16 15 13 11 9 12 10 10 10 10 12 12 13 13 13 13 14
28 36 37 34 28 28 21 27 24 20 24 20 26 29 27 23 16 13 11 25 26 25 25 24 23 22 20 16 15 13 12 9 10 10 9 7 6 5 5 5 6 6 7 6
28 24 33 32 33 31 26 26 26 24 25 29 16 22 31 31 23 21 15 13 26 27 26 27 28 25 22 19 17 15 13 12 14 16 14 13 11 11 11 10 9 7 7 6
25 32 27 34 32 34 29 25 25 27 19 23 20 25 21 29 30 26 20 18 18 24 24 24 25 23 22 19 20 20 18 17 16 16 16 17 16 16 16 16 16 17 17 15
19 27 28 35 36 33 24 25 24 29 23 19 16 12 21 22 24 27 29 24 19 19 20 20 19 18 17 21 22 22 21 20 18 16 15 15 14 14 13 11 11 12 14 16
21 16 21 30 34 32 26 24 22 25 18 15 21 20 17 21 22 21 27 31 26 21 21 21 22 22 22 22 23 23 21 19 18 17 16 16 13 12 9 8 7 8 9 10
22 27 18 24 26 35 33 23 11 11 9 10 19 18 28 19 21 11 18 25 30 28 26 26 26 26 25 22 21 21 21 19 19 18 16 16 15 12 10 6 2 1 4 8
25 22 34 23 34 29 39 33 23 16 10 15 21 16 22 24 22 18 17 16 20 31 31 29 28 27 26 22 21 21 21 23 21 19 16 17 17 15 13 9 6 6 7 10
19 27 25 31 27 30 32 36 33 23 10 9 13 18 18 20 17 18 16 18 14 19 24 30 32 30 27 23 18 16 20 21 23 21 21 20 21 20 18 15 12 11 12 13
22 9 29 25 31 29 28 29 25 22 18 17 12 10 14 14 19 17 20 15 17 23 23 24 27 34 31 24 21 20 19 19 19 23 24 24 25 25 24 22 19 17 17 17
27 24 14 23 31 37 26 23 20 21 22 14 15 22 20 21 18 18 17 19 23 21 25 27 24 26 24 21 22 23 25 23 22 21 22 26 31 30 28 26 26 28 23 24
28 19 26 30 17 32 31 30 31 30 19 18 21 24 10 9 19 18 19 23 20 21 25 30 25 25 26 26 26 27 24 25 23 23 26 27 30 33 27 31 27 29 35 27
15 13 18 20 28 37 26 37 35 30 30 31 22 25 21 20 19 21 18 21 22 20 23 27 23 25 29 26 27 26 27 25 23 27 27 31 33 37 40 35 38 27 34 33
17 14 19 25 31 30 31 27 29 36 34 30 33 31 27 28 23 20 24 23 18 24 21 29 24 23 24 26 28 27 27 26 26 27 27 30 33 35 39 41 45 46 33 30
14 20 24 36 38 37 38 36 32 31 46 38 37 37 36 30 26 27 25 26 20 25 24 29 18 17 26 28 27 26 26 25 22 22 22 22 24 36 42 45 49 48 50 31
16 9 11 24 34 33 40 40 36 33 36 36 35 33 31 30 30 32 26 28 27 24 21 24 23 18 24 26 28 25 23 21 20 20 20 20 24 29 38 47 49 49 48 30
19 5 11 15 17 26 34 39 36 37 35 38 39 37 29 32 38 29 27 25 27 24 25 24 23 22 23 23 22 23 23 26 27 28 29 30 31 30 31 35 39 45 46 44
16 15 7 14 7 10 30 34 38 37 40 33 33 32 37 36 35 32 31 27 24 24 27 28 23 26 23 28 24 26 29 27 27 24 23 24 29 33 33 33 33 35 36 40
16 6 7 8 9 14 16 24 27 37 44 45 39 33 32 37 37 31 35 27 27 24 27 28 27 27 29 27 28 27 26 18 15 10 10 14 18 23 29 35 32 33 33 38
24 6 1 12 13 6 12 22 25 30 34 38 33 31 29 32 29 28 32 31 28 27 27 31 27 30 33 32 31 27 26 22 15 11 14 23 24 24 27 30 31 30 30 30
20 23 4 15 15 14 17 22 25 20 21 32 33 31 29 28 31 31 33 25 22 23 33 38 31 34 35 33 30 28 29 22 18 21 32 37 34 26 27 30 30 27 29 30
22 20 18 7 9 9 8 15 18 21 18 28 28 27 26 27 29 29 27 17 17 16 18 27 33 36 35 34 31 27 22 20 28 37 34 33 28 30 27 29 27 22 27 28
20 25 29 18 15 26 15 17 20 23 25 23 29 24 20 24 24 21 21 21 19 26 26 33 30 27 24 24 21 17 19 29 33 27 31 29 26 30 28 24 16 19 23 23
20 25 24 21 18 5 24 36 37 35 32 34 30 30 25 24 28 27 26 25 27 26 26 25 24 18 16 20 26 28 30 42 41 33 27 24 25 26 26 19 16 16 22 31
23 23 20 16 23 22 24 28 30 31 29 27 27 26 29 29 28 25 22 21 20 16 15 17 20 23 28 32 34 35 34 33 30 24 19 18 20 20 21 19 19 13 16 19
31 32 32 31 29 26 22 17 19 18 15 11 7 8 11 19 20 16 14 14 14 15 19 23 25 26 29 27 25 26 27 23 17 13 11 10 12 12 8 9 13 16 17 20
Wind_Direction
202 202 206 207 202 214 226 225 217 225 228 227 230 239 244 273 235 221 215 216 218 217 222 223 222 219 214 211 210 212 219 226 216 221 234 233 237 244 251 250 253 253 254 259
208 215 213 214 206 210 223 222 217 216 222 228 239 247 255 252 264 263 242 226 220 215 221 224 223 225 221 210 206 214 213 208 191 191 184 180 195 207 219 221 222 232 245 254
214 220 213 212 204 203 215 219 219 221 215 223 240 251 255 251 252 245 233 219 215 219 225 229 233 230 223 221 207 194 187 180 172 165 155 145 136 128 120 108 96 86 74 65
225 216 217 210 208 206 214 213 230 215 198 226 236 259 259 255 248 246 236 219 214 209 216 221 225 224 221 208 190 179 174 171 170 169 156 141 132 119 102 93 83 74 64 56
214 216 210 216 209 202 217 221 232 229 212 221 231 232 260 256 252 252 246 239 218 208 201 204 202 196 197 194 184 176 174 174 175 171 168 165 153 136 113 101 86 72 56 50
220 214 215 219 214 210 207 213 218 212 204 227 229 217 251 253 266 268 264 244 233 219 210 196 192 192 188 189 187 183 185 182 177 169 164 166 162 157 149 134 109 72 48 38
221 217 204 207 208 206 207 201 184 204 204 229 231 221 244 265 274 263 261 262 247 228 217 209 199 195 191 193 197 200 198 196 192 183 176 173 173 172 165 165 165 26 5 354
211 224 213 205 207 199 208 205 206 208 208 223 228 220 254 265 269 273 259 265 256 243 230 221 214 212 206 203 205 206 212 210 207 207 203 197 199 202 202 210 246 279 307 320
204 223 215 214 203 201 200 210 219 232 229 228 219 240 255 247 259 259 256 246 233 229 234 231 223 219 217 213 213 220 219 219 222 225 218 220 215 218 223 231 250 274 292 300
219 218 219 217 216 211 216 218 213 218 227 235 229 239 242 251 248 259 254 251 239 239 229 221 223 229 225 222 214 217 214 217 225 233 237 240 236 229 233 243 256 261 271 289
222 222 225 211 219 218 216 215 218 229 227 234 238 241 237 255 247 254 254 267 250 252 228 217 221 217 223 218 219 220 225 224 226 231 238 246 247 239 241 247 269 273 265 282
224 223 231 237 235 231 229 225 219 222 216 228 242 235 211 244 232 241 261 254 263 254 212 217 219 212 209 201 211 221 232 236 234 239 241 247 253 246 257 258 256 266 270 264
201 212 224 243 242 245 238 231 229 232 236 228 232 237 241 249 242 244 269 250 254 235 204 207 206 211 212 217 220 222 225 225 228 240 248 253 253 255 255 263 253 263 269 261
234 248 226 234 239 236 236 238 233 227 232 233 235 243 241 246 251 253 255 257 259 219 213 203 209 213 217 220 227 229 233 234 244 256 262 266 266 266 265 267 257 249 275 256
234 252 253 246 246 236 232 234 232 232 232 233 239 240 244 246 248 253 254 239 253 231 216 211 205 220 220 214 212 226 240 246 251 262 267 269 273 268 262 261 258 252 255 241
235 245 303 266 244 234 224 227 231 237 237 234 236 239 242 244 254 253 240 237 236 225 232 218 206 218 220 226 226 232 237 250 258 259 262 259 254 259 264 262 264 263 257 291
247 247 316 285 249 233 237 226 228 233 237 234 235 241 243 247 251 248 236 230 224 226 214 207 216 224 220 215 218 231 237 247 254 258 259 257 261 263 269 268 266 267 271 263
241 239 272 294 290 215 242 237 230 232 237 226 231 237 240 247 252 242 233 222 217 228 216 220 221 221 219 218 220 227 239 254 263 266 269 268 266 266 269 268 270 274 273 269
202 194 203 310 287 274 241 236 235 228 239 241 244 243 231 243 247 240 231 220 218 217 222 227 225 220 219 220 225 229 245 236 238 254 298 304 303 302 289 278 276 272 275 279
224 195 31 297 289 269 224 222 228 235 227 237 238 226 231 240 230 225 214 203 208 217 231 236 226 216 217 219 225 232 230 235 241 253 290 303 305 301 300 292 278 275 276 264
204 222 266 299 270 271 246 216 214 192 223 222 222 230 215 207 206 203 201 203 210 228 232 235 226 212 217 219 218 233 235 241 254 281 296 302 306 301 299 297 287 280 268 254
201 187 195 288 253 250 232 213 192 211 204 198 191 183 180 192 199 202 205 200 218 214 221 205 219 206 210 216 227 229 239 267 285 287 292 290 291 294 290 298 292 283 277 287
202 216 205 222 291 289 270 204 183 173 171 160 190 195 202 194 181 186 178 176 184 184 205 187 192 200 209 215 225 244 274 286 278 283 289 284 282 285 288 297 297 286 279 280
195 202 209 214 262 130 133 133 136 137 137 136 141 145 164 170 161 157 160 166 173 176 182 194 204 214 236 251 257 264 266 280 282 284 282 272 273 281 280 265 284 290 287 275
190 177 180 177 156 145 127 126 121 123 122 125 131 135 143 160 157 155 157 164 171 185 202 220 232 245 257 266 267 268 277 284 281 283 263 273 279 284 278 281 275 268 280 287
179 180 178 185 169 166 146 126 120 117 113 103 124 178 181 157 177 176 180 198 206 225 240 253 260 268 275 279 283 293 290 288 276 261 263 270 271 262 251 257 272 268 273 267
Height
3137 3139 3138 3147 3155 3160 3163 3164 3165 3168 3169 3173 3174 3176 3177 3178 3179 3179 3181 3183 3186 3189 3191 3192 3193 3194 3195 3196 3198 3200 3202 3203 3204 3206 3206 3206 3207 3207 3207 3208 3208 3208 3208 3208
3134 3132 3140 3149 3154 3157 3159 3161 3164 3166 3168 3172 3172 3174 3175 3176 3177 3178 3177 3179 3182 3185 3185 3187 3188 3190 3192 3193 3195 3197 3199 3201 3201 3203 3204 3205 3205 3205 3206 3206 3205 3205 3205 3205
3128 3133 3139 3143 3148 3151 3155 3157 3160 3163 3166 3168 3171 3172 3169 3171 3173 3173 3173 3174 3176 3179 3181 3183 3184 3186 3188 3190 3192 3194 3197 3199 3199 3201 3202 3204 3204 3205 3205 3204 3203 3203 3203 3203
3125 3130 3133 3137 3141 3147 3150 3153 3157 3161 3164 3166 3168 3164 3163 3164 3167 3169 3170 3169 3172 3173 3175 3177 3179 3181 3184 3187 3188 3190 3193 3196 3198 3199 3200 3201 3202 3203 3203 3203 3203 3202 3202 3202
3121 3123 3128 3131 3136 3143 3148 3152 3154 3156 3160 3163 3163 3168 3158 3159 3159 3161 3164 3166 3168 3171 3172 3174 3176 3179 3182 3184 3186 3188 3190 3192 3195 3196 3198 3200 3201 3201 3202 3203 3203 3202 3202 3202
3118 3122 3124 3128 3134 3140 3146 3149 3151 3154 3158 3158 3158 3159 3152 3152 3154 3156 3158 3161 3164 3167 3170 3171 3173 3176 3178 3181 3183 3185 3187 3190 3192 3194 3196 3197 3199 3200 3201 3201 3201 3201 3201 3201
3112 3115 3119 3124 3129 3135 3138 3143 3148 3151 3151 3149 3152 3153 3145 3148 3150 3151 3153 3155 3159 3163 3165 3169 3169 3172 3175 3178 3181 3183 3185 3187 3189 3191 3193 3195 3197 3198 3198 3199 3199 3199 3199 3199
3106 3110 3111 3116 3120 3123 3129 3135 3135 3140 3142 3145 3145 3142 3137 3145 3146 3146 3148 3149 3153 3157 3160 3162 3166 3168 3171 3174 3177 3179 3182 3183 3185 3188 3190 3192 3193 3195 3196 3196 3197 3196 3197 3197
3099 3102 3107 3111 3117 3122 3123 3124 3134 3135 3135 3136 3135 3135 3137 3140 3140 3141 3143 3146 3148 3150 3153 3157 3160 3163 3166 3170 3173 3176 3178 3180 3182 3184 3186 3187 3189 3191 3192 3193 3193 3194 3194 3194
3094 3098 3100 3106 3113 3115 3116 3123 3126 3127 3125 3129 3129 3131 3132 3135 3137 3138 3139 3141 3143 3145 3149 3151 3153 3157 3162 3166 3169 3172 3173 3175 3179 3180 3182 3184 3185 3186 3188 3188 3189 3190 3190 3190
3089 3093 3096 3098 3097 3104 3108 3111 3114 3117 3118 3116 3122 3122 3127 3131 3133 3134 3136 3137 3137 3139 3142 3145 3147 3152 3157 3161 3164 3166 3168 3171 3173 3176 3178 3179 3179 3181 3183 3184 3185 3186 3186 3187
3082 3086 3088 3089 3093 3098 3101 3103 3106 3108 3112 3114 3116 3117 3121 3125 3128 3129 3131 3131 3131 3133 3135 3139 3143 3148 3152 3155 3158 3160 3163 3166 3169 3171 3172 3173 3174 3176 3178 3182 3178 3180 3183 3181
3076 3078 3081 3083 3089 3089 3090 3094 3099 3103 3106 3103 3109 3112 3118 3121 3123 3125 3125 3125 3127 3127 3129 3134 3139 3141 3145 3148 3152 3155 3157 3160 3164 3164 3166 3166 3168 3168 3170 3170 3171 3174 3175 3177
3068 3069 3072 3073 3076 3083 3085 3087 3090 3094 3095 3100 3098 3108 3110 3115 3117 3119 3120 3122 3122 3123 3125 3129 3133 3137 3140 3143 3146 3149 3152 3156 3157 3158 3159 3159 3160 3162 3163 3163 3162 3166 3169 3170
3063 3061 3062 3062 3065 3067 3073 3078 3082 3082 3086 3089 3095 3097 3102 3109 3111 3113 3115 3116 3117 3118 3120 3124 3129 3132 3135 3138 3141 3144 3147 3150 3151 3152 3152 3152 3154 3155 3155 3154 3151 3151 3150 3151
3054 3053 3054 3052 3053 3060 3058 3065 3072 3076 3081 3083 3088 3087 3095 3101 3103 3106 3107 3109 3111 3114 3117 3121 3125 3127 3130 3134 3137 3140 3142 3144 3144 3144 3145 3145 3144 3144 3143 3143 3142 3141 3140 3143
3049 3047 3050 3047 3048 3052 3055 3055 3062 3067 3070 3074 3075 3080 3089 3091 3095 3097 3100 3103 3106 3109 3113 3116 3120 3123 3126 3129 3132 3134 3135 3135 3135 3136 3136 3137 3136 3135 3134 3133 3134 3132 3134 3134
3042 3042 3046 3048 3045 3046 3041 3047 3053 3056 3060 3065 3069 3074 3079 3083 3087 3089 3092 3097 3101 3104 3108 3111 3113 3117 3120 3122 3123 3125 3127 3128 3129 3129 3128 3128 3128 3126 3125 3123 3122 3123 3125 3122
3037 3034 3039 3048 3043 3038 3035 3038 3042 3046 3049 3055 3059 3065 3069 3074 3076 3079 3085 3090 3094 3097 3101 3104 3107 3110 3111 3114 3117 3119 3120 3121 3122 3123 3123 3123 3122 3120 3118 3116 3116 3115 3115 3115
3030 3030 3036 3046 3046 3033 3028 3030 3034 3038 3040 3044 3051 3055 3060 3063 3066 3070 3077 3081 3086 3090 3094 3097 3100 3102 3105 3108 3110 3112 3113 3114 3116 3116 3116 3116 3116 3113 3110 3108 3108 3106 3106 3105
3023 3026 3026 3039 3041 3031 3026 3026 3028 3033 3037 3036 3042 3046 3051 3055 3061 3064 3070 3074 3078 3081 3085 3088 3092 3096 3098 3101 3104 3105 3106 3107 3110 3109 3109 3108 3107 3107 3105 3102 3100 3098 3098 3099
3015 3021 3030 3041 3035 3027 3022 3023 3028 3026 3028 3032 3036 3041 3045 3051 3054 3058 3062 3067 3070 3071 3077 3081 3085 3089 3092 3094 3096 3098 3100 3102 3102 3102 3101 3101 3100 3099 3096 3096 3093 3091 3093 3091
3009 3012 3013 3035 3028 3024 3020 3021 3022 3023 3025 3029 3034 3036 3043 3046 3049 3054 3057 3062 3064 3069 3071 3077 3081 3084 3087 3088 3090 3092 3094 3096 3095 3094 3094 3092 3090 3090 3088 3088 3087 3087 3087 3086
3006 3010 3013 3020 3020 3024 3022 3024 3025 3027 3028 3031 3032 3036 3041 3043 3051 3053 3057 3060 3063 3068 3070 3075 3079 3081 3083 3084 3084 3083 3082 3088 3086 3084 3085 3083 3082 3082 3081 3080 3080 3081 3082 3081
3002 3007 3011 3020 3019 3029 3028 3028 3028 3029 3032 3035 3037 3040 3041 3044 3049 3053 3056 3059 3061 3065 3067 3072 3074 3076 3076 3076 3076 3076 3078 3078 3075 3075 3075 3075 3076 3075 3075 3075 3074 3075 3076 3074
2999 3004 3010 3016 3019 3024 3026 3030 3028 3029 3032 3035 3038 3042 3044 3041 3049 3050 3052 3055 3057 3061 3063 3066 3067 3069 3069 3069 3068 3068 3068 3067 3067 3066 3067 3068 3068 3068 3067 3069 3069 3069 3068 3069